Regional Weather Roundup
Issued by NWS Sioux Falls, SD

Home | Current Version | Previous Version | Graphics & Text | Print | Product List | Glossary Off
Versions: 1 2 3 4 5 6 7 8 9 10 11 12 13 14 15 16 17 18 19 20 21 22 23 24 25 26 27 28 29 30 31 32 33 34 35 36 37 38 39 40 41 42 43 44 45 46 47 48 49 50

000
ASUS43 KFSD 161002
RWRFSD

WEATHER ROUNDUP FOR SE SOUTH DAKOTA/SW MINNESOTA/NW IOWA
NATIONAL WEATHER SERVICE SIOUX FALLS SD
500 AM CDT WED APR 16 2014

NOTE: "FAIR" INDICATES FEW OR NO CLOUDS BELOW 12,000 FEET WITH NO
SIGNIFICANT WEATHER AND OR OBSTRUCTIONS TO VISIBILITY.


SDZ038>040-050-052>070-161100-
SOUTHEAST SOUTH DAKOTA

CITY           SKY/WX    TMP DP  RH WIND       PRES   REMARKS
CHAMBERLAIN    NOT AVBL
HURON          CLOUDY    38  26  62 E18G24    29.59S
MITCHELL       CLOUDY    44  29  55 SE13      29.54F
SIOUX FALLS    CLOUDY    42  29  59 SE14      29.63F
WINNER         PTSUNNY   51  27  39 W18G24    29.50R
YANKTON        CLOUDY    50  25  37 S17G23    29.60R
$$

MNZ071-072-080-081-089-090-097-098-161100-
SOUTHWEST MINNESOTA

CITY           SKY/WX    TMP DP  RH WIND       PRES   REMARKS
FAIRMONT       CLOUDY    36  23  60 SE21      29.82F
JACKSON        CLOUDY    36  27  69 SE17G23   29.76F
LUVERNE        CLOUDY    41  30  65 SE16      29.67F
MARSHALL       CLOUDY    34  19  55 E21G29    29.75F WCI  22
MONTEVIDEO     CLOUDY    32  19  59 SE20G30   29.83F WCI  20
PIPESTONE      CLOUDY    36  27  69 SE14G21   29.67F
REDWOOD FALLS  CLOUDY    34  20  56 E15G26    29.83F WCI  24
TRACY          CLOUDY    34  23  65 E16       29.76F WCI  23
WINDOM         CLOUDY    34  25  69 SE14      29.77F WCI  24
WORTHINGTON    CLOUDY    37  25  60 SE15      29.73F
$$

IAZ001>003-012>014-020>022-031-032-NEZ013-014-SDZ071-161100-
NORTHWEST IOWA

CITY           SKY/WX    TMP DP  RH WIND       PRES   REMARKS
CHEROKEE       CLOUDY    42  31  63 S15G23    29.73F
DENISON        CLOUDY    43  30  61 S21G32    29.74S
ESTHERVILLE    CLOUDY    34  27  75 SE22      29.78F WCI  22
SHELDON        CLOUDY    39  30  70 SE18G25   29.68F
SIOUX CITY     CLOUDY    48  28  46 S14G20    29.69R
SPENCER        CLOUDY    38  29  70 SE24      29.75F
STORM LAKE     CLOUDY    41  32  70 S22G28    29.75F
$$

ABBREVIATIONS USED IN REMARKS
   TC - TEMPERATURE IN CELSIUS
  WCI - WIND CHILL INDEX
   HX - HEAT INDEX
  VSB - VISIBILITY




USA.gov is the U.S. government's official web portal to all federal, state and local government web resources and services.